Wind_Speed
18 17 16 17 19 17 15 15 14 13 12 12 10 10 7 7 7 7 6 6 5 6 8 8 9 11 12 12 12 11 10 10 10 11 12 13 13 14 14 16 18 20 19 20 20
24 23 22 21 20 22 20 19 18 18 17 16 15 14 12 10 9 10 10 9 8 7 8 9 9 10 12 12 12 12 11 10 10 10 9 10 12 11 12 14 16 17 19 19 20
30 29 27 27 26 24 24 24 23 22 22 22 20 20 18 16 14 13 12 12 14 13 12 11 11 11 12 13 13 12 12 12 12 13 14 13 14 13 13 15 15 15 15 17 20
34 33 32 32 31 31 30 29 29 28 27 26 26 25 24 23 21 19 17 17 16 16 16 16 16 14 14 15 15 16 14 13 14 16 18 19 18 18 18 16 15 15 16 18 19
35 36 36 35 36 36 35 34 34 33 32 31 30 30 30 28 27 26 24 23 22 21 21 21 20 19 18 18 18 19 20 20 19 18 18 20 19 21 23 18 19 18 20 21 22
37 38 38 39 39 39 39 39 38 37 36 36 34 34 33 32 31 31 31 29 28 27 26 26 26 25 25 23 23 22 23 24 24 24 22 21 22 22 24 26 25 24 23 24 26
38 39 39 40 42 42 42 42 41 42 41 40 39 38 36 35 36 35 35 34 34 34 34 33 31 32 31 32 29 27 28 28 29 29 28 25 21 24 27 26 28 27 27 28 30
39 40 42 43 42 42 44 45 44 45 44 44 44 44 42 38 38 38 37 36 37 38 38 38 38 37 36 36 36 35 34 33 32 34 33 32 22 28 30 29 30 29 31 30 32
40 42 42 43 44 43 44 45 44 45 45 46 47 46 44 42 41 41 40 40 40 40 40 40 39 38 38 39 40 39 39 38 38 39 40 39 28 30 33 32 29 30 33 34 34
43 42 45 45 44 44 44 44 43 43 44 43 45 45 44 43 42 42 43 43 42 42 42 42 41 39 37 37 42 42 42 41 41 44 46 45 39 30 34 32 32 31 33 37 41
45 44 45 48 47 45 45 46 46 46 45 45 46 45 44 42 41 41 41 43 45 45 43 44 46 41 39 42 42 41 42 43 41 47 53 49 49 38 35 36 33 33 36 37 39
47 47 47 48 50 50 49 48 49 50 51 50 50 49 47 44 42 40 41 43 43 44 43 45 43 38 42 44 45 45 45 44 45 49 55 53 54 45 43 36 35 34 36 38 39
50 49 50 50 50 52 51 52 52 54 57 53 53 54 50 47 46 43 42 43 42 42 41 44 39 41 43 44 46 46 47 47 52 52 56 58 57 49 44 40 34 34 35 37 38
55 52 52 53 52 51 55 53 53 54 63 66 57 56 50 47 49 43 44 45 45 43 43 45 37 39 41 42 45 48 47 51 54 58 60 59 63 53 49 43 39 40 41 37 36
54 56 55 56 55 53 53 54 56 56 66 66 67 56 49 45 43 40 41 43 43 42 42 41 40 39 40 39 44 50 50 52 55 58 63 59 64 60 58 52 48 46 44 36 31
56 56 57 58 58 57 57 55 54 57 72 69 65 60 54 49 47 45 43 44 44 45 46 44 44 44 44 45 48 51 52 54 58 59 67 60 65 70 61 59 57 46 40 40 37
64 58 59 60 60 59 58 59 59 67 68 66 62 61 59 56 52 48 48 48 48 48 49 47 46 46 46 47 50 51 53 59 63 63 68 67 70 66 62 61 51 44 45 42 37
64 67 63 62 64 64 63 63 67 70 65 63 63 61 61 59 58 56 54 53 51 49 50 51 52 45 48 49 53 56 55 56 64 66 73 69 67 63 63 55 48 41 34 36 29
71 67 69 65 69 70 68 69 73 70 69 66 63 62 58 56 57 57 58 57 53 51 51 50 58 58 58 57 57 59 58 56 60 63 69 69 69 65 65 64 47 36 39 43 39
73 74 68 69 72 74 74 76 76 73 70 69 67 66 65 63 61 60 59 59 54 51 49 55 57 53 52 54 58 53 54 57 58 63 68 70 69 73 72 57 42 43 46 52 50
74 80 74 76 76 78 82 78 76 77 71 71 72 72 70 68 65 65 62 63 60 54 53 55 59 62 61 62 62 61 62 62 62 63 64 65 71 69 59 47 40 50 47 49 56
63 67 76 80 80 78 80 73 68 71 74 71 74 79 74 71 69 69 67 65 61 59 59 59 64 65 65 64 61 64 63 61 62 62 62 64 70 56 53 59 54 51 46 53 60
73 71 65 63 78 83 75 77 86 83 84 76 71 68 65 70 77 75 66 62 61 64 67 67 70 72 67 67 69 63 57 58 60 61 70 68 72 62 63 57 54 52 51 57 59
90 88 87 81 78 73 72 74 79 79 80 72 76 69 67 68 72 71 76 72 68 67 62 59 66 71 71 68 68 67 67 65 67 76 77 82 78 67 60 59 56 54 59 64 61
91 93 91 83 80 79 74 77 71 69 71 71 78 74 68 71 63 65 65 66 63 64 66 71 74 72 66 61 62 62 69 69 75 76 83 80 81 75 64 62 62 64 67 62 67
87 88 90 90 86 82 80 81 73 69 72 71 73 72 68 73 72 63 62 63 69 69 67 68 73 73 77 75 79 77 69 70 74 73 77 75 75 67 68 67 63 59 65 65 63
87 84 81 85 85 78 90 86 83 78 80 79 77 78 77 68 68 72 72 72 75 72 69 73 77 79 83 75 72 76 75 66 74 70 67 70 70 69 65 65 65 65 68 66 65
Wind_Direction
247 253 250 250 252 251 257 262 262 265 270 274 283 296 303 317 327 326 316 320 323 328 339 345 346 344 342 343 343 345 335 311 299 294 297 300 300 305 305 307 304 302 294 285 279
249 250 251 251 254 251 253 258 263 266 266 267 268 271 275 276 290 301 302 306 304 297 306 317 323 328 333 336 329 331 337 334 325 313 307 304 304 306 308 306 310 306 299 294 289
251 252 253 255 254 248 249 253 257 259 263 264 264 265 264 264 267 274 279 294 298 299 301 300 302 308 315 322 324 317 316 321 322 318 315 311 312 316 312 313 310 306 308 302 298
256 255 255 254 254 253 250 251 253 256 257 260 263 263 263 262 260 261 266 273 273 279 283 287 290 292 297 300 304 309 310 308 307 309 313 315 307 312 305 318 315 312 311 305 299
262 262 260 258 258 257 257 257 257 258 259 260 262 263 263 261 259 261 261 261 267 270 275 279 282 285 286 289 291 295 299 302 304 307 307 313 318 313 304 311 316 313 311 311 312
261 262 263 263 262 262 261 261 261 261 261 261 262 264 266 268 267 266 265 266 267 270 274 277 280 282 285 286 288 292 294 298 303 304 304 304 314 308 304 306 310 309 308 309 311
262 264 264 264 264 263 264 263 263 264 265 265 266 265 264 265 268 269 270 271 273 274 275 277 278 282 284 287 288 290 292 294 298 301 303 302 313 311 304 308 305 304 301 303 302
263 262 263 265 265 265 265 264 263 264 264 265 266 267 268 269 270 270 272 273 273 275 276 276 278 279 282 284 289 289 287 291 295 295 296 296 304 309 308 309 306 305 303 299 298
267 265 264 262 264 264 266 266 266 266 267 267 268 269 269 271 275 277 276 275 274 275 276 278 279 281 281 285 284 284 286 289 291 294 292 293 296 297 301 303 308 308 302 298 298
268 270 265 264 263 263 264 266 266 266 267 268 268 269 271 270 271 273 274 275 276 278 278 279 279 280 284 283 281 285 285 285 289 289 289 292 293 291 295 298 301 304 301 297 297
269 270 270 265 263 263 264 265 266 267 268 267 268 267 270 270 269 273 276 278 280 281 281 278 277 283 280 281 284 283 283 284 285 285 287 291 290 292 291 294 300 297 298 296 294
267 270 270 270 266 264 262 264 266 267 266 267 268 269 269 270 269 272 275 277 279 280 280 279 278 277 276 278 281 282 282 284 282 283 285 287 287 291 292 295 296 293 296 296 295
262 266 268 269 268 265 266 265 265 267 268 264 267 268 268 268 268 271 273 274 277 278 281 278 282 276 275 277 279 280 282 284 284 285 285 287 286 288 290 293 291 292 295 297 293
264 263 265 267 267 266 265 266 269 269 269 270 264 266 270 271 268 270 269 271 272 276 276 276 278 276 276 278 280 279 282 284 286 287 288 288 292 290 295 296 302 303 301 297 286
265 267 266 266 267 267 266 266 266 268 269 270 272 269 268 270 271 268 268 268 271 272 273 276 276 275 275 276 275 277 279 282 284 285 287 289 293 299 298 303 303 309 310 301 291
264 265 266 266 265 266 265 265 265 265 264 266 270 276 277 272 269 269 268 268 270 269 269 272 272 271 272 272 272 277 280 280 281 283 286 295 293 293 299 303 307 317 314 306 303
268 266 266 267 265 266 265 264 263 261 264 267 272 274 275 277 275 268 265 264 266 268 271 270 270 271 272 274 274 276 278 280 282 285 288 291 289 291 298 300 309 313 311 305 305
263 264 265 265 265 264 263 263 261 264 265 270 272 275 275 276 276 274 270 266 266 268 271 272 271 271 269 268 271 271 271 274 284 286 285 283 286 293 294 296 306 311 314 312 315
261 260 260 263 263 262 259 260 265 267 268 269 270 269 271 273 274 274 273 273 272 270 270 274 268 269 268 269 270 273 274 278 278 280 284 288 290 294 292 298 314 312 315 310 311
265 264 258 259 260 259 257 264 267 266 271 270 270 270 272 272 271 270 271 273 272 271 265 264 265 265 268 270 271 273 275 275 276 279 282 286 291 289 290 303 311 318 315 307 308
266 267 267 264 259 257 258 265 266 265 267 269 268 268 269 270 269 270 270 271 271 273 274 273 274 273 272 274 274 271 270 272 275 277 281 287 283 286 299 305 306 315 308 303 302
262 255 265 262 258 258 264 263 264 266 264 267 266 265 267 267 265 268 265 267 271 270 269 269 268 270 276 277 275 273 272 276 277 280 280 275 277 286 296 298 303 304 298 299 296
251 255 251 256 254 258 256 258 258 264 267 269 261 261 264 266 265 262 266 267 266 269 269 270 268 271 269 271 272 278 276 274 275 274 272 277 281 297 291 298 303 298 294 295 293
262 263 259 257 252 251 252 253 258 263 262 259 257 259 262 266 264 265 266 266 268 267 266 270 269 270 271 271 273 273 272 274 278 278 282 281 290 285 290 298 295 288 290 292 289
260 262 264 265 263 259 258 258 255 251 257 255 254 259 266 265 264 265 268 270 268 267 268 269 269 268 269 266 263 268 274 277 276 282 283 290 289 290 299 299 295 292 291 290 290
262 265 264 266 264 265 266 263 255 250 254 255 262 261 263 260 260 270 265 267 270 269 266 265 268 268 268 267 269 274 272 275 280 288 290 289 288 299 296 298 294 295 289 288 288
258 258 260 265 266 266 267 266 268 268 262 261 265 265 264 262 267 266 268 268 269 267 271 270 268 269 272 276 272 265 276 281 283 282 287 283 289 292 300 293 292 294 289 290 289
Height
5906 5906 5906 5906 5906 5907 5907 5907 5907 5907 5907 5906 5905 5905 5904 5903 5901 5900 5898 5897 5895 5894 5892 5890 5888 5886 5883 5881 5879 5877 5876 5874 5872 5871 5869 5867 5865 5863 5861 5859 5856 5854 5854 5853 5852
5902 5903 5903 5903 5903 5903 5903 5904 5904 5904 5904 5904 5903 5902 5902 5901 5900 5899 5898 5895 5893 5892 5891 5890 5888 5885 5883 5880 5877 5876 5874 5873 5871 5869 5867 5865 5863 5860 5859 5856 5853 5852 5851 5849 5848
5898 5898 5899 5899 5899 5899 5899 5899 5900 5900 5900 5899 5899 5899 5899 5898 5897 5896 5895 5894 5892 5891 5890 5888 5886 5885 5882 5879 5877 5874 5872 5870 5870 5867 5865 5863 5860 5857 5855 5853 5850 5848 5847 5845 5844
5892 5893 5893 5894 5894 5894 5894 5894 5894 5894 5895 5895 5894 5895 5895 5895 5895 5892 5891 5890 5888 5887 5886 5885 5883 5882 5880 5878 5875 5873 5870 5868 5866 5865 5862 5860 5857 5855 5851 5850 5847 5845 5843 5841 5839
5887 5887 5888 5888 5888 5888 5888 5888 5888 5888 5888 5888 5889 5889 5889 5890 5889 5888 5887 5886 5885 5883 5882 5881 5879 5878 5876 5874 5872 5870 5867 5865 5863 5861 5858 5856 5854 5851 5847 5846 5844 5841 5838 5835 5834
5879 5880 5881 5882 5883 5883 5883 5883 5882 5882 5882 5882 5882 5882 5883 5884 5884 5883 5882 5882 5881 5879 5878 5876 5875 5873 5872 5870 5868 5866 5863 5861 5859 5856 5854 5852 5850 5847 5845 5841 5839 5836 5833 5830 5828
5872 5873 5873 5874 5875 5876 5875 5876 5876 5876 5876 5875 5875 5875 5876 5877 5876 5876 5876 5876 5875 5875 5874 5872 5870 5868 5867 5865 5863 5862 5859 5856 5854 5851 5849 5848 5847 5843 5840 5839 5835 5833 5829 5826 5823
5864 5865 5866 5866 5866 5867 5866 5867 5868 5868 5867 5867 5867 5867 5868 5869 5868 5868 5868 5869 5868 5867 5866 5865 5864 5863 5861 5859 5857 5855 5853 5850 5848 5844 5843 5841 5844 5838 5834 5833 5830 5827 5824 5821 5817
5855 5856 5856 5857 5857 5858 5857 5858 5859 5859 5859 5859 5859 5858 5860 5861 5862 5861 5861 5861 5859 5858 5857 5856 5855 5855 5854 5851 5849 5848 5845 5844 5840 5836 5832 5832 5838 5833 5828 5826 5825 5820 5816 5812 5809
5846 5847 5847 5847 5848 5849 5849 5848 5849 5850 5850 5850 5849 5850 5851 5853 5852 5853 5852 5851 5851 5850 5849 5848 5846 5846 5847 5842 5839 5839 5837 5836 5834 5827 5822 5821 5824 5829 5823 5819 5818 5815 5809 5804 5801
5837 5838 5838 5837 5838 5839 5841 5840 5841 5841 5840 5841 5839 5840 5840 5843 5845 5844 5844 5842 5842 5841 5839 5838 5836 5840 5836 5833 5831 5829 5827 5825 5827 5818 5810 5812 5809 5816 5816 5812 5811 5808 5802 5797 5793
5826 5828 5828 5827 5829 5829 5830 5830 5830 5830 5829 5830 5830 5830 5831 5834 5835 5835 5835 5834 5833 5831 5829 5826 5827 5831 5826 5824 5821 5819 5816 5817 5813 5808 5800 5800 5796 5802 5801 5805 5802 5798 5795 5789 5784
5815 5816 5817 5816 5817 5819 5819 5820 5819 5818 5813 5819 5818 5817 5821 5824 5825 5827 5826 5824 5822 5821 5820 5814 5820 5818 5816 5814 5811 5809 5806 5805 5799 5797 5790 5784 5779 5786 5791 5792 5794 5790 5786 5780 5774
5803 5805 5805 5805 5807 5807 5807 5808 5809 5808 5800 5795 5806 5805 5810 5813 5812 5817 5816 5814 5812 5811 5810 5805 5809 5807 5805 5805 5801 5797 5798 5793 5789 5782 5776 5775 5754 5771 5777 5779 5779 5777 5773 5770 5765
5792 5794 5794 5793 5794 5796 5796 5796 5796 5797 5784 5783 5779 5793 5801 5803 5803 5805 5804 5802 5801 5800 5799 5799 5797 5796 5794 5795 5791 5786 5786 5783 5777 5770 5761 5764 5754 5753 5757 5762 5766 5766 5756 5754 5752
5779 5780 5781 5782 5780 5782 5783 5783 5785 5783 5763 5770 5773 5778 5785 5792 5793 5792 5793 5791 5790 5788 5787 5787 5785 5785 5785 5783 5780 5776 5773 5769 5763 5760 5744 5754 5746 5735 5745 5745 5745 5751 5746 5740 5738
5765 5766 5768 5767 5768 5768 5768 5770 5770 5758 5757 5762 5767 5767 5770 5773 5777 5780 5779 5777 5777 5775 5776 5775 5774 5773 5773 5770 5768 5767 5763 5755 5749 5747 5735 5737 5729 5726 5731 5732 5736 5736 5733 5729 5725
5745 5749 5752 5753 5753 5754 5753 5755 5748 5746 5752 5754 5755 5758 5757 5759 5759 5761 5762 5763 5766 5764 5762 5759 5760 5762 5760 5758 5754 5750 5751 5748 5739 5734 5720 5723 5710 5717 5716 5719 5726 5725 5720 5714 5715
5726 5728 5735 5736 5734 5734 5735 5735 5734 5738 5740 5740 5742 5742 5745 5746 5746 5745 5744 5745 5750 5752 5749 5745 5743 5743 5743 5741 5741 5737 5735 5737 5729 5725 5710 5706 5704 5706 5703 5705 5715 5713 5709 5702 5701
5706 5708 5715 5718 5713 5712 5710 5717 5718 5724 5725 5724 5726 5728 5729 5730 5730 5729 5730 5731 5732 5735 5731 5725 5723 5729 5728 5727 5723 5726 5725 5717 5717 5711 5703 5689 5691 5684 5688 5697 5703 5699 5693 5687 5685
5689 5686 5697 5697 5692 5687 5687 5700 5706 5706 5709 5709 5707 5706 5709 5713 5713 5712 5714 5715 5715 5718 5715 5712 5708 5712 5710 5710 5712 5709 5705 5703 5703 5698 5692 5684 5669 5671 5683 5687 5689 5686 5682 5676 5668
5672 5666 5672 5677 5670 5667 5675 5683 5685 5689 5693 5691 5687 5689 5689 5694 5694 5693 5694 5696 5701 5701 5695 5693 5686 5691 5694 5693 5692 5688 5691 5692 5686 5684 5679 5673 5650 5681 5680 5676 5680 5674 5670 5661 5653
5648 5651 5651 5650 5644 5646 5658 5660 5662 5670 5670 5672 5668 5670 5673 5671 5669 5673 5678 5686 5683 5678 5678 5676 5666 5668 5678 5676 5670 5672 5675 5673 5669 5668 5658 5654 5643 5675 5668 5669 5666 5658 5652 5647 5640
5625 5622 5626 5624 5628 5630 5635 5640 5640 5649 5648 5648 5648 5651 5654 5653 5653 5651 5660 5664 5663 5662 5662 5653 5647 5648 5653 5663 5655 5653 5652 5656 5650 5642 5640 5631 5636 5648 5655 5654 5651 5644 5636 5630 5623
5601 5599 5601 5598 5607 5613 5612 5618 5623 5627 5627 5628 5624 5633 5637 5635 5635 5637 5645 5638 5640 5641 5638 5631 5627 5631 5634 5641 5635 5636 5636 5645 5632 5626 5615 5625 5614 5625 5634 5631 5628 5624 5615 5612 5605
5579 5580 5579 5578 5587 5586 5589 5595 5603 5614 5609 5610 5607 5617 5616 5612 5620 5623 5624 5620 5615 5617 5616 5614 5607 5608 5606 5621 5619 5610 5617 5625 5619 5620 5602 5597 5595 5617 5610 5610 5604 5605 5595 5591 5588
5556 5559 5557 5556 5559 5561 5566 5573 5579 5592 5589 5593 5595 5594 5590 5602 5606 5597 5596 5595 5593 5596 5596 5593 5590 5588 5580 5598 5588 5574 5604 5609 5602 5602 5598 5585 5588 5591 5593 5585 5582 5581 5573 5572 5570